Location: Newark
(30.1000°N, 109.4667°E)
Time: 13:15:40
(UTC+00:00)

SR - Pass Details

Date: 22 February 2020
Orbit: 578 x 878 km, 66.7° (Epoch: 08 April)

Event Time Altitude Azimuth Distance (km) Brightness Sun altitude
Rises 06:04:20 0° 159° (SSE) 3,390 ? 46.3°
Reaches altitude 10° 06:07:51 10° 137° (SE) 2,493 ? 46.0°
Maximum altitude 06:11:01 15° 103° (ESE) 2,172 ? 45.7°
Drops below altitude 10° 06:14:13 10° 70° (ENE) 2,526 ? 45.3°
Sets 06:17:48 0° 49° (NE) 3,463 ? 45.0°
